| time (UTC) | temp F | wind direction | speed MPH | gust MPH | rain 1hr in | rain 24hr in | rain mn in | humidity % | barometer mb |
| 20260506191507 | 63 | 292 | 1.0 | 9.0 | 0.00 | 0.15 | 0.15 | 87 | 1005.1 |
| 20260506190009 | 63 | 238 | 3.0 | 8.0 | 0.00 | 0.15 | 0.15 | 87 | 1005.2 |
| 20260506184517 | 62 | 283 | 3.0 | 12.0 | 0.00 | 0.15 | 0.15 | 88 | 1005.3 |
| 20260506183004 | 62 | 248 | 2.0 | 7.0 | 0.00 | 0.15 | 0.15 | 88 | 1005.5 |
| 20260506181602 | 62 | 284 | 4.0 | 9.0 | 0.00 | 0.15 | 0.15 | 88 | 1005.6 |
| 20260506180002 | 62 | 277 | 3.0 | 10.0 | 0.00 | 0.15 | 0.15 | 88 | 1005.7 |
| 20260506174502 | 61 | 224 | 4.0 | 10.0 | 0.00 | 0.15 | 0.15 | 89 | 1005.6 |
| 20260506173100 | 61 | 238 | 3.0 | 11.0 | 0.00 | 0.15 | 0.15 | 89 | 1005.8 |
| 20260506171608 | 61 | 233 | 4.0 | 10.0 | 0.00 | 0.15 | 0.15 | 89 | 1005.8 |
| 20260506170059 | 61 | 212 | 4.0 | 7.0 | 0.01 | 0.15 | 0.15 | 89 | 1006.0 |
| 20260506164556 | 61 | 229 | 2.0 | 9.0 | 0.03 | 0.15 | 0.15 | 90 | 1005.9 |
| 20260506163056 | 61 | 235 | 3.0 | 10.0 | 0.04 | 0.15 | 0.15 | 90 | 1005.9 |
| 20260506161554 | 61 | 217 | 4.0 | 9.0 | 0.07 | 0.15 | 0.15 | 90 | 1006.2 |
| 20260506154551 | 61 | 201 | 3.0 | 9.0 | 0.09 | 0.12 | 0.12 | 89 | 1006.9 |
| 20260506153046 | 61 | 183 | 2.0 | 10.0 | 0.09 | 0.11 | 0.11 | 88 | 1007.0 |
| 20260506151545 | 61 | 250 | 3.0 | 8.0 | 0.07 | 0.08 | 0.08 | 87 | 1007.1 |
| 20260506150047 | 61 | 225 | 1.0 | 7.0 | 0.05 | 0.05 | 0.05 | 86 | 1006.9 |
| 20260506144556 | 62 | 244 | 2.0 | 7.0 | 0.03 | 0.03 | 0.03 | 85 | 1006.8 |
| 20260506143039 | 62 | 275 | 3.0 | 6.0 | 0.02 | 0.02 | 0.02 | 83 | 1007.0 |
| 20260506141535 | 63 | 190 | 3.0 | 10.0 | 0.01 | 0.01 | 0.01 | 80 | 1006.9 |
| 20260506140035 | 64 | 200 | 3.0 | 10.0 | 0.00 | 0.00 | 0.00 | 77 | 1006.8 |
| 20260506134533 | 65 | 238 | 6.0 | 11.0 | 0.00 | 0.00 | 0.00 | 75 | 1006.8 |
| 20260506133031 | 65 | 207 | 3.0 | 9.0 | 0.00 | 0.00 | 0.00 | 76 | 1006.6 |
| 20260506131527 | 65 | 275 | 4.0 | 15.0 | 0.00 | 0.00 | 0.00 | 75 | 1006.7 |
| 20260506130027 | 65 | 178 | 3.0 | 16.0 | 0.00 | 0.00 | 0.00 | 75 | 1006.9 |
| 20260506124531 | 65 | 288 | 5.0 | 13.0 | 0.00 | 0.00 | 0.00 | 75 | 1007.1 |
| 20260506123025 | 65 | 279 | 4.0 | 15.0 | 0.00 | 0.00 | 0.00 | 75 | 1006.9 |
| 20260506121522 | 65 | 256 | 3.0 | 9.0 | 0.00 | 0.00 | 0.00 | 76 | 1007.0 |
| 20260506120022 | 65 | 215 | 4.0 | 10.0 | 0.00 | 0.00 | 0.00 | 76 | 1006.8 |
| 20260506114533 | 65 | 175 | 3.0 | 11.0 | 0.00 | 0.00 | 0.00 | 76 | 1006.6 |
| 20260506113020 | 65 | 225 | 2.0 | 10.0 | 0.00 | 0.00 | 0.00 | 76 | 1006.5 |
| 20260506111519 | 64 | 240 | 3.0 | 9.0 | 0.00 | 0.00 | 0.00 | 76 | 1006.6 |
| 20260506110021 | 64 | 98 | 1.0 | 10.0 | 0.00 | 0.00 | 0.00 | 76 | 1006.5 |
| 20260506104515 | 64 | 225 | 2.0 | 10.0 | 0.00 | 0.00 | 0.00 | 76 | 1006.3 |
| 20260506103011 | 64 | 303 | 3.0 | 10.0 | 0.00 | 0.00 | 0.00 | 76 | 1006.4 |
| 20260506101511 | 65 | 223 | 3.0 | 10.0 | 0.00 | 0.00 | 0.00 | 76 | 1006.4 |
| 20260506100018 | 65 | 263 | 1.0 | 11.0 | 0.00 | 0.00 | 0.00 | 75 | 1006.4 |
| 20260506094504 | 65 | 250 | 4.0 | 8.0 | 0.00 | 0.00 | 0.00 | 74 | 1006.3 |
| 20260506093002 | 66 | 244 | 2.0 | 8.0 | 0.00 | 0.00 | 0.00 | 74 | 1006.5 |
| 20260506091502 | 66 | 286 | 5.0 | 11.0 | 0.00 | 0.00 | 0.00 | 73 | 1006.4 |
| 20260506090059 | 66 | 250 | 2.0 | 7.0 | 0.00 | 0.00 | 0.00 | 73 | 1006.4 |
| 20260506084604 | 67 | 261 | 3.0 | 10.0 | 0.00 | 0.00 | 0.00 | 73 | 1006.6 |
| 20260506083057 | 66 | 239 | 3.0 | 12.0 | 0.00 | 0.00 | 0.00 | 73 | 1006.6 |
| 20260506081555 | 66 | 208 | 1.0 | 7.0 | 0.00 | 0.00 | 0.00 | 73 | 1006.6 |
| 20260506073052 | 66 | 254 | 1.0 | 6.0 | 0.00 | 0.00 | 0.00 | 73 | 1006.8 |
| 20260506071556 | 67 | 222 | 2.0 | 8.0 | 0.00 | 0.00 | 0.00 | 72 | 1006.9 |
| 20260506061543 | 68 | 243 | 3.0 | 9.0 | 0.00 | 0.00 | 0.00 | 69 | 1007.3 |
| 20260506044539 | 69 | 261 | 2.0 | 8.0 | 0.00 | 0.00 | 0.00 | 62 | 1007.8 |
| 20260506043029 | 69 | 249 | 1.0 | 9.0 | 0.00 | 0.00 | 0.00 | 61 | 1007.8 |
| 20260506041528 | 69 | 240 | 3.0 | 9.0 | 0.00 | 0.00 | 0.00 | 60 | 1007.9 |
| 20260506040027 | 69 | 223 | 2.0 | 8.0 | 0.00 | 0.00 | 0.00 | 60 | 1007.9 |
| 20260506034525 | 69 | 221 | 1.0 | 11.0 | 0.00 | 0.00 | 0.00 | 60 | 1007.8 |
| 20260506033033 | 70 | 247 | 2.0 | 4.0 | 0.00 | 0.00 | 0.00 | 59 | 1007.6 |
| 20260506031532 | 70 | 217 | 3.0 | 12.0 | 0.00 | 0.00 | 0.00 | 59 | 1007.6 |
| 20260506030045 | 70 | 238 | 3.0 | 8.0 | 0.00 | 0.00 | 0.00 | 58 | 1007.7 |
| 20260506024528 | 70 | 229 | 1.0 | 7.0 | 0.00 | 0.00 | 0.00 | 57 | 1007.7 |
| 20260506023023 | 71 | 194 | 2.0 | 9.0 | 0.00 | 0.00 | 0.00 | 56 | 1007.8 |
| 20260506021523 | 71 | 215 | 2.0 | 8.0 | 0.00 | 0.00 | 0.00 | 55 | 1007.7 |
| 20260506020021 | 72 | 217 | 2.0 | 4.0 | 0.00 | 0.00 | 0.00 | 54 | 1007.7 |
| 20260506014521 | 72 | 192 | 2.0 | 5.0 | 0.00 | 0.00 | 0.00 | 53 | 1007.4 |
| 20260506013020 | 72 | 252 | 2.0 | 7.0 | 0.00 | 0.00 | 0.00 | 52 | 1007.4 |
| 20260506011529 | 73 | 248 | 1.0 | 10.0 | 0.00 | 0.00 | 0.00 | 51 | 1007.1 |
| 20260506010019 | 73 | 273 | 3.0 | 9.0 | 0.00 | 0.00 | 0.00 | 50 | 1007.1 |
| 20260506004533 | 74 | 262 | 3.0 | 9.0 | 0.00 | 0.00 | 0.00 | 48 | 1006.9 |
| 20260506003023 | 75 | 192 | 2.0 | 8.0 | 0.00 | 0.00 | 0.00 | 47 | 1006.8 |
| 20260506001519 | 76 | 180 | 2.0 | 9.0 | 0.00 | 0.00 | 0.00 | 46 | 1006.7 |
| 20260506000022 | 76 | 184 | 2.0 | 7.0 | 0.00 | 0.00 | 0.00 | 43 | 1006.4 |
| 20260505234516 | 77 | 257 | 2.0 | 7.0 | 0.00 | 0.00 | 0.00 | 42 | 1006.3 |
| 20260505233015 | 77 | 271 | 3.0 | 8.0 | 0.00 | 0.00 | 0.00 | 41 | 1006.3 |
| 20260505231521 | 78 | 273 | 3.0 | 11.0 | 0.00 | 0.00 | 0.00 | 42 | 1006.4 |
| 20260505230015 | 78 | 200 | 3.0 | 13.0 | 0.00 | 0.00 | 0.00 | 41 | 1006.2 |
| 20260505224515 | 79 | 123 | 3.0 | 15.0 | 0.00 | 0.00 | 0.00 | 40 | 1006.2 |
| 20260505223014 | 79 | 248 | 6.0 | 15.0 | 0.00 | 0.00 | 0.00 | 40 | 1006.2 |
| 20260505221512 | 79 | 250 | 3.0 | 11.0 | 0.00 | 0.00 | 0.00 | 40 | 1006.2 |
| 20260505220012 | 80 | 234 | 5.0 | 12.0 | 0.00 | 0.00 | 0.00 | 40 | 1006.3 |
| 20260505214513 | 80 | 217 | 6.0 | 13.0 | 0.00 | 0.00 | 0.00 | 39 | 1006.1 |
| 20260505213011 | 80 | 196 | 3.0 | 9.0 | 0.00 | 0.00 | 0.00 | 39 | 1006.2 |
| 20260505211510 | 80 | 261 | 3.0 | 11.0 | 0.00 | 0.00 | 0.00 | 39 | 1006.1 |
| 20260505210010 | 80 | 218 | 1.0 | 9.0 | 0.00 | 0.00 | 0.00 | 39 | 1006.1 |
| 20260505204511 | 80 | 318 | 7.0 | 16.0 | 0.00 | 0.00 | 0.00 | 37 | 1006.0 |
| 20260505203022 | 80 | 277 | 7.0 | 16.0 | 0.00 | 0.00 | 0.00 | 37 | 1006.1 |
| 20260505201507 | 80 | 333 | 7.0 | 15.0 | 0.00 | 0.00 | 0.00 | 38 | 1006.2 |
| 20260505200007 | 80 | 273 | 6.0 | 12.0 | 0.00 | 0.00 | 0.00 | 38 | 1006.3 |
| 20260505194506 | 80 | 244 | 3.0 | 14.0 | 0.00 | 0.00 | 0.00 | 38 | 1006.3 |
| 20260505193004 | 80 | 275 | 4.0 | 14.0 | 0.00 | 0.00 | 0.00 | 38 | 1006.4 |